Flag Weather past 2 weeks in Ansbach, Bavaria, Germany

Now
37 °F

Passing clouds.


Feels Like: 35 °F
Forecast: 34 / 42 °F
Wind: 3 mph from South

Location: Ansbach / Katterbach

Current Time: Nov 24, 2014 at 6:33:59 AM

Latest Report: Nov 24, 2014 at 5:58 AM


Visibility: N/A

Pressure: 30.22 "Hg

Humidity: 100%

Dew point: 37 °F

Location of AnsbachLocation

Historic Weather in Ansbach — Graph

°F

Ansbach temperature yesterday

Maximum temperature yesterday: 40 °F (at 1:58 PM)
Minimum temperature yesterday: 32 °F (at 7:58 AM)
Average temperature yesterday: 35 °F

Past Weeks' High & Low Weather Summary

 TemperatureHumidityPressure
High50 °F (Nov 15, 1:58 PM)100% (Nov 9, 4:58 AM)30.38 "Hg (Nov 9, 4:58 AM)
Low32 °F (Nov 23, 7:58 AM)81% (Nov 21, 1:58 PM)29.49 "Hg (Nov 16, 3:59 AM)
Average42 °F100%29.97 "Hg
* Reported Nov 9 4:58 AM — Nov 24 4:58 AM, Ansbach, Weather by CustomWeather, © 2014

Note: Actual official high and low records may vary slightly from our data, if they occured in-between our weather recording intervals... More about our weather records

Advertising

Ansbach weather history for previous 24 hours

 ConditionsComfort  
Time TempWeatherWind HumidityBarometerVisibility
4:58 AM
Nov 24
37 °FPassing clouds.1 mph100%30.22 "HgN/A
4:04 AM37 °FDrizzle. Mostly cloudy.3 mph100%30.13 "HgN/A
2:58 AM37 °FLow clouds.8 mph100%30.23 "HgN/A
1:58 AM37 °FLow clouds.5 mph100%30.24 "HgN/A
12:58 AM37 °FFog.7 mph100%30.24 "Hg4 mi
12:04 AM37 °FFog.7 mph100%30.17 "Hg1 mi
11:58 PM
Nov 23
37 °FFog.8 mph100%30.25 "Hg1 mi
10:58 PM37 °FFog.7 mph100%30.27 "Hg1 mi
9:58 PM37 °FFog.8 mph100%30.27 "Hg1 mi
8:58 PM37 °FFog.8 mph100%30.28 "Hg1 mi
7:58 PM36 °FFog.9 mph100%30.27 "Hg1 mi
7:00 PM36 °FFog.8 mph100%30.17 "Hg1 mi
6:58 PM36 °FFog.7 mph100%30.28 "Hg1 mi
5:58 PM36 °FFog.9 mph100%30.28 "Hg1 mi
4:58 PM37 °FFog.10 mph100%30.27 "Hg2 mi
3:58 PM37 °FFog.6 mph100%30.27 "Hg6 mi
2:58 PM39 °FScattered clouds.5 mph100%30.28 "HgN/A
2:04 PM39 °FPartly sunny.7 mph100%30.19 "HgN/A
1:58 PM40 °FScattered clouds.7 mph100%30.29 "HgN/A
12:58 PM39 °FFog.No wind100%30.29 "Hg5 mi
11:58 AM37 °FFog.7 mph100%30.32 "Hg2 mi
10:58 AM38 °FFog.No wind100%30.34 "Hg5 mi
9:58 AM34 °FFog.No wind100%30.32 "Hg2 mi
8:59 AM32 °FFog.No wind100%30.24 "Hg0 mi
8:01 AM32 °FIce fog.1 mph100%30.22 "Hg2 mi
7:58 AM32 °FIce fog.No wind100%30.32 "Hg2 mi
7:04 AM32 °FIce fog.No wind100%30.21 "Hg1 mi
7:00 AM32 °FIce fog.No wind100%30.21 "Hg1 mi
6:00 AM32 °FIce fog.No wind100%30.20 "Hg1 mi
Weather by CustomWeather, © 2014

See weather overviewHow to use our weather pages